TimeCDT,TemperatureF,Dew PointF,Humidity,Sea Level PressureIn,VisibilityMPH,Wind Direction,Wind SpeedMPH,Gust SpeedMPH,PrecipitationIn,Events,Conditions,WindDirDegrees,DateUTC
12:02 AM,44.6,44.6,100,29.93,1.0,Calm,Calm,-,N/A,,Mist,0,2012-10-03 05:02:00
12:09 AM,44.6,44.6,100,29.93,0.5,Calm,Calm,-,N/A,Fog,Fog,0,2012-10-03 05:09:00
12:53 AM,44.1,44.1,100,29.94,1.0,Calm,Calm,-,N/A,,Mist,0,2012-10-03 05:53:00
1:00 AM,44.6,44.6,100,29.94,1.2,Calm,Calm,-,N/A,,Scattered Clouds,0,2012-10-03 06:00:00
1:10 AM,44.6,44.6,100,29.94,2.5,Calm,Calm,-,N/A,,Scattered Clouds,0,2012-10-03 06:10:00
1:16 AM,44.6,44.6,100,29.94,1.0,Calm,Calm,-,N/A,,Mist,0,2012-10-03 06:16:00
1:23 AM,42.8,42.8,100,29.94,0.2,Calm,Calm,-,N/A,Fog,Fog,0,2012-10-03 06:23:00
1:53 AM,43.0,43.0,100,29.95,0.2,Calm,Calm,-,N/A,Fog,Fog,0,2012-10-03 06:53:00
2:53 AM,42.1,42.1,100,29.95,0.2,Calm,Calm,-,N/A,Fog,Fog,0,2012-10-03 07:53:00
3:53 AM,41.0,41.0,100,29.95,0.2,Calm,Calm,-,N/A,Fog,Fog,0,2012-10-03 08:53:00
4:53 AM,39.9,39.9,100,29.97,0.2,Calm,Calm,-,N/A,Fog,Fog,0,2012-10-03 09:53:00
5:53 AM,42.1,42.1,100,29.98,0.2,Calm,Calm,-,N/A,Fog,Fog,0,2012-10-03 10:53:00
6:53 AM,42.1,42.1,100,29.99,0.2,Calm,Calm,-,N/A,Fog,Fog,0,2012-10-03 11:53:00
7:53 AM,42.1,42.1,100,30.00,0.2,Calm,Calm,-,N/A,Fog,Fog,0,2012-10-03 12:53:00
8:53 AM,45.0,45.0,100,30.01,0.2,Calm,Calm,-,N/A,Fog,Fog,0,2012-10-03 13:53:00
9:46 AM,48.2,48.2,100,29.99,1.2,Calm,Calm,-,N/A,,Overcast,0,2012-10-03 14:46:00
9:50 AM,48.2,48.2,100,29.99,3.0,Calm,Calm,-,N/A,,Mostly Cloudy,0,2012-10-03 14:50:00
9:53 AM,48.9,48.9,100,30.00,3.0,Calm,Calm,-,N/A,,Mostly Cloudy,0,2012-10-03 14:53:00
10:08 AM,51.8,50.0,94,29.99,9.0,Calm,Calm,-,N/A,,Partly Cloudy,0,2012-10-03 15:08:00
10:53 AM,62.1,48.9,62,29.99,10.0,Calm,Calm,-,N/A,,Clear,0,2012-10-03 15:53:00
11:53 AM,71.1,39.0,31,29.97,10.0,Calm,Calm,-,N/A,,Clear,0,2012-10-03 16:53:00
12:53 PM,73.0,46.9,39,29.95,10.0,Calm,Calm,-,N/A,,Clear,0,2012-10-03 17:53:00
1:53 PM,75.0,48.0,38,29.93,10.0,Variable,3.5,-,N/A,,Clear,0,2012-10-03 18:53:00
2:53 PM,75.9,48.0,37,29.92,10.0,Calm,Calm,-,N/A,,Clear,0,2012-10-03 19:53:00
3:53 PM,77.0,46.9,34,29.91,10.0,Variable,3.5,-,N/A,,Clear,0,2012-10-03 20:53:00
4:53 PM,77.0,46.9,34,29.91,10.0,Calm,Calm,-,N/A,,Clear,0,2012-10-03 21:53:00
5:53 PM,73.9,45.0,35,29.92,10.0,Calm,Calm,-,N/A,,Clear,0,2012-10-03 22:53:00
6:53 PM,62.1,48.0,60,29.93,10.0,Calm,Calm,-,N/A,,Clear,0,2012-10-03 23:53:00
7:53 PM,55.0,48.0,77,29.95,10.0,Calm,Calm,-,N/A,,Clear,0,2012-10-04 00:53:00
8:53 PM,52.0,46.9,83,29.97,10.0,NNW,3.5,-,N/A,,Clear,340,2012-10-04 01:53:00
9:53 PM,62.1,48.9,62,29.97,10.0,Variable,3.5,-,N/A,,Clear,0,2012-10-04 02:53:00
10:53 PM,57.9,48.9,72,29.99,10.0,SW,3.5,-,N/A,,Clear,220,2012-10-04 03:53:00
11:53 PM,51.1,46.9,86,29.98,10.0,Calm,Calm,-,N/A,,Clear,0,2012-10-04 04:53:00